www.pogodaiklimat.ru

Погода и климат >> Архив погоды >> Бангладеш >> Патуакхали


ПОГОДА в Патуакхали

  • Прогноз погоды в Патуакхали
  • Монитор погоды в Патуакхали

АРХИВ ПОГОДЫ в Патуакхали

Время (UTC), дата Ветер
(напр.,м/с)
 
Видим.   Явления Облачность Т
(С)
Тd
(С)
f
(%)
Тe
(С)
Тes
(С)
Комфортность P
(гПа)
Po
(гПа)
Тmin
(С)
Tmax
(С)
R
(мм)
R24
(мм)
S
(см)
06 12.06 ЮВ 1 7000 м 4/4 540 м
[Sc diur, vesp]
+34.5 +28.0 69 +55 +71 опасность
перегрева
1001.6 1001.4
18 12.06 штиль 0 5000 м 1/0
[Ac trans]
+29.8 +29.0 95 +52 +52 опасность
перегрева
1001.4 1001.2
00 13.06 штиль 0 5000 м 5/3 540 м
[Sc diur, vesp Ci fib]
+26.5 +26.0 97 +40 +40 очень
душно
998.4 998.3
12 13.06 штиль 0 6000 м 6/5 540 м
[Sc diur, vesp As trans]
+33.2 +27.0 70 +51 +52 опасность
перегрева
997.9 997.8 +35.5
18 13.06 Ю 1 5000 м 3/0
[Ac lent]
+29.8 +28.0 90 +49 +49 опасность
перегрева
1000.2 1000.0
00 14.06 штиль 0 4000 м 10/0
[As op]
+28.9 +28.0 95 +48 +48 опасность
перегрева
999.2 999.1
06 14.06 Ю 1 6000 м 8/8 540 м
[Sc diur, vesp As trans]
+33.9 +29.0 76 +58 +63 опасность
перегрева
1000.1 999.9
09 14.06 ЮВ 1 5000 м гроза без осадков 10/8 480 м
[Cb cap As op]
+33.5 +29.0 77 +57 +57 опасность
перегрева
997.7 997.5
12 14.06 штиль 0 4000 м {гроза, дождь} 10/6 600 м
[Sc diur, vesp As op]
+29.8 +29.0 95 +52 +52 опасность
перегрева
997.6 997.4 +35.8 16
15 14.06 штиль 0 5000 м 6/3 600 м
[Sc diur, vesp As trans]
+29.3 +28.0 93 +49 +49 опасность
перегрева
999.9 999.8
18 14.06 Ю 1 5000 м 9/8 500 м
[Sc diur, vesp As trans]
+29.7 +29.0 96 +52 +52 опасность
перегрева
1001.5 1001.4
00 15.06 Ю 1 4000 м 6/6 540 м
[Sc diur, vesp As trans]
+29.6 +29.6 100 +53 +54 опасность
перегрева
999.8 999.7
03 15.06 Ю 1 5000 м 8/5 540 м
[Sc diur, vesp As trans]
+33.4 +29.0 78 +57 +62 опасность
перегрева
1000.7 1000.5 +28.2
06 15.06 З 2 6000 м 8/6 540 м
[Sc diur, vesp As trans]
+33.8 +28.0 72 +55 +61 опасность
перегрева
1000.1 999.9
09 15.06 С 2 3000 м в посл. час дождь 10/8 500 м
[Sc diur, vesp As op]
+25.7 +24.0 90 +35 +36 очень
душно
1000.5 1000.3
12 15.06 Ю 2 4000 м {дождь} 10/4 600 м
[Sc As trans]
+28.0 +26.0 89 +42 +42 опасность
перегрева
999.4 999.2 +33.8 4
18 15.06 Ю 1 5000 м 8/0
[Ac trans]
+28.6 +28.0 97 +47 +47 опасность
перегрева
1001.1 1001.0
00 16.06 ЮВ 1 5000 м 9/6 540 м
[Sc diur, vesp Ac As]
+29.0 +28.0 94 +48 +48 опасность
перегрева
1000.7 1000.6
03 16.06 Ю 2 6000 м 6/4 540 м
[Sc diur, vesp As trans]
+31.9 +29.0 85 +55 +62 опасность
перегрева
1001.1 1001.0 +25.2
06 16.06 Ю 2 7000 м 5/5 540 м
[Sc diur, vesp]
+34.2 +28.0 70 +55 +66 опасность
перегрева
1000.8 1000.6
09 16.06 ЮЗ 2 8000 м 4/4 540 м
[Sc diur, vesp]
+34.5 +28.0 69 +55 +63 опасность
перегрева
999.2 999.0
12 16.06 Ю 1 6000 м 5/3 600 м
[Sc diur, vesp As trans]
+31.8 +27.0 76 +50 +50 опасность
перегрева
999.1 998.9 +35.0
15 16.06 Ю 1 5000 м ясно +29.8 +28.0 90 +49 +49 опасность
перегрева
1000.6 1000.5
18 16.06 Ю 1 5000 м ясно +29.0 +28.0 94 +48 +48 опасность
перегрева
1000.9 1000.8
00 17.06 Ю 1 5000 м 5/5 600 м
[Sc diur, vesp As trans]
+29.0 +28.0 94 +48 +48 опасность
перегрева
999.8 999.6
03 17.06 Ю 1 6000 м 5/5 540 м
[Sc diur, vesp]
+32.7 +29.0 81 +56 +64 опасность
перегрева
1000.9 1000.7 +28.5
06 17.06 Ю 2 7000 м 6/4 540 м
[Sc diur, vesp As trans]
+34.8 +28.0 68 +56 +67 опасность
перегрева
1000.6 1000.4
09 17.06 Ю 2 8000 м 6/5 540 м
[Sc diur, vesp As trans]
+34.7 +30.0 77 +62 +68 опасность
перегрева
999.1 998.9
12 17.06 Ю 1 6000 м 9/6 540 м
[Sc diur, vesp As trans]
+32.4 +28.0 78 +53 +53 опасность
перегрева
998.7 998.5 +35.3
15 17.06 Ю 1 5000 м 9/6 540 м
[Sc diur, vesp As trans]
+31.0 +29.0 89 +54 +54 опасность
перегрева
1000.2 1000.0
18 17.06 Ю 1 5000 м ясно +30.5 +30.0 97 +56 +56 опасность
перегрева
1001.1 1000.9
00 18.06 штиль 0 5000 м 10/6 500 м
[Cb calv As op]
+27.8 +26.0 90 +42 +42 опасность
перегрева
1000.4 1000.3
03 18.06 ЮЗ 1 2000 м гроза, ливневой дождь 10/8 480 м
[Cb cap As op]
+24.8 +24.8 100 +35 +36 очень
душно
1001.1 1000.9 +22.4
06 18.06 Ю 1 4000 м {гроза, дождь} 9/6 500 м
[Sc diur, vesp As trans]
+29.7 +26.0 81 +45 +51 опасность
перегрева
1001.0 1000.8 26
09 18.06 З 1 5000 м 8/5 540 м
[Sc diur, vesp As trans]
+31.4 +26.0 73 +47 +52 опасность
перегрева
999.0 998.9
12 18.06 штиль 0 6000 м 8/5 540 м
[Sc diur, vesp As trans Ci fib]
+30.4 +26.0 77 +45 +46 опасность
перегрева
998.3 998.2 +32.4
15 18.06 штиль 0 5000 м 5/5 600 м
[Sc diur, vesp As trans]
+28.6 +28.0 97 +47 +47 опасность
перегрева
1000.9 1000.8
18 18.06 штиль 0 5000 м 9/6 500 м
[Sc diur, vesp As trans]
+28.4 +27.0 92 +45 +45 опасность
перегрева
1001.6 1001.5
00 19.06 штиль 0 5000 м 4/4 600 м
[Sc diur, vesp]
+28.0 +28.0 100 +46 +47 опасность
перегрева
1000.4 1000.3

 

Местоположение метеостанции Патуакхали (Бангладеш): широта 22.33 долгота 90.33 высота над уровнем моря 3 м.

В архиве по умолчанию представлена погода в Патуакхали за последнюю неделю. Архивные данные за месяц целиком и за предыдущие месяцы, начиная с января 2011 года, Вы можете получить, выбрав интересующий диапазон дат из раскрывающегося списка и нажав кнопку "Ввод!".


*Определитесь, кто Вы:
робот инопланетянин человек

Внимание! Время в таблицах - всемирное. Для получения местного времени необходимо прибавить поправку, которая равна 6.5 ч.

Смотрите также архив погоды в соседних городах и на ближайших метеорологических станциях:

Погода в Кепупаре (Бангладеш) (40 км)
Погода в Барисале (Бангладеш) (47 км)
Погода в Бхоле (Бангладеш) (51 км)
Погода в Хатии (Бангладеш) (80 км)
Погода в Монгле (Бангладеш) (90 км)
Погода в Гопалгандж-Садаре (Бангладеш) (92 км)
Погода в Мадарипуре (Бангладеш) (95 км)
Погода в Кхулне (Бангладеш) (96 км)
Погода в Маиидиcурте (Бангладеш) (99 км)
Погода в Чандпуре (Бангладеш) (111 км)

Пояснения к столбцам:

Ветер - указаны скорость ветра в м/с - средняя за 10 мин, порывы в срок и между сроками (в фигурных скобках) и направление, откуда дует ветер: С - северный, СВ - северо-восточный, В - восточный, ЮВ - юго-восточный, Ю - южный, ЮЗ - юго-западный, З - западный, СЗ - северо-западный.
Видимость - горизонтальная дальность видимости в метрах или километрах. При видимости от 1 до 10 км при отсутствии осадков обычно наблюдается дымка, при ухудшении видимости до 1 км и менее - туман. В сухую погоду видимость может ухудшаться дымом, пылью или мглою.
Явления - указаны атмосферные явления, наблюдавшиеся в срок или в последний час перед сроком; фигурными скобками обозначены явления, наблюдавшиеся между сроками (за 1-3 часа до срока); квадратными скобками обозначены град или гололедные отложения с указанием их диаметра в мм.
Облачность - указаны через наклонную черту общая и нижняя облачность в баллах и высота нижней границы облаков в метрах; квадратными скобками обозначены формы облаков: Ci - перистые, Cs - перисто-слоистые, Cc - перисто-кучевые, Ac - высококучевые, As - высокослоистые, Sc - слоисто-кучевые, Ns - слоисто-дождевые, Cu - кучевые, Cb - кучево-дождевые. Подробнее классификацию облаков см. в Атласе облаков (PDF).
T - Температура воздуха - температура, измеренная на высоте 2 м над землей.
Td - Температура точки росы - температура, при понижении до которой содержащийся в воздухе водяной пар достигнет насыщения.
f - Относительная влажность воздуха - влажноcть воздуха, измеренная на высоте 2 м над землей.
Te - Эффективная температура - температура, которую ощущает одетый по сезону человек в тени. Характеристика душности погоды. При расчете учитывается влияние влажности воздуха и скорости ветра на теплоощущения человека.
Tes - Эффективная температура на солнце - температура, которую ощущает человек, с поправкой на солнечный нагрев. Характеристика знойности погоды. Зависит от высоты солнца над горизонтом, облачности и скорости ветра. Ночью, в пасмурную погоду, а также при ветре 12 м/с и более поправка равна нулю.
P - Атмосферное давление - приведенное к уровню моря атмосферное давление.
Po - Атмосферное давление - измеренное на уровне метеостанции атмосферное давление.
Tmin - Минимальная температура - минимум температуры воздуха на высоте 2 м над землей.
Tmax - Максимальная температура - максимум температуры воздуха на высоте 2 м над землей.
R - Количество осадков - Количество выпавших осадков за период времени, мм. При наведении курсора мыши на число - период времени, за который выпало указанное количество осадков.
R24 - Количество осадков - Количество выпавших осадков за 24 часа, мм.
S - Снежный покров - Высота снежного покрова, см. При наведении курсора мыши на число - состояние снежного покрова и степень покрытия местности в баллах.